Flag for India Weather past 2 weeks in Lucknow, Uttar Pradesh, India

Now
102 °F

Duststorm.


Feels Like: 114 °F
Forecast: 88 / 110 °F
Wind: 2 mph from North

Location: Lucknow / Amausi

Current Time: May 30, 2015 at 10:41:12 AM

Latest Report: May 30, 2015 at 10:00 AM


Visibility: 2 mi

Pressure: 29.65 "Hg

Humidity: 40%

Dew point: 73 °F

Location of LucknowLocation

Historic Weather in Lucknow — Graph

°F

Lucknow temperature yesterday

Maximum temperature yesterday: 115 °F (at 3:30 PM)
Minimum temperature yesterday: 79 °F (at 5:30 AM)
Average temperature yesterday: 100 °F

Past Weeks' High & Low Weather Summary

 TemperatureHumidityPressure
High115 °F (May 23, 3:00 PM)75% (May 26, 8:00 AM)29.80 "Hg (May 26, 8:00 AM)
Low77 °F (May 16, 8:00 AM)13% (May 22, 2:30 PM)29.42 "Hg (May 22, 4:30 PM)
Average96 °F40%29.55 "Hg
* Reported May 15 7:30 AM — May 30 8:00 AM, Lucknow, Weather by CustomWeather, © 2015

Note: Actual official high and low records may vary slightly from our data, if they occured in-between our weather recording intervals... More about our weather records

Advertising

Lucknow weather history for previous 24 hours

 ConditionsComfort  
Time TempWeatherWind HumidityBarometerVisibility
8:00 AM
Sat, May 30
91 °FHaze.2 mph56%29.65 "Hg2 mi
7:00 AM90 °FHaze.2 mph49%29.62 "Hg2 mi
6:30 AM90 °FClear.2 mph46%29.62 "Hg2 mi
6:00 AM88 °FClear.No wind46%29.62 "Hg2 mi
5:30 AM86 °FClear.2 mph49%29.59 "Hg2 mi
4:00 AM86 °FPassing clouds.No wind55%29.56 "Hg2 mi
3:00 AM90 °FPassing clouds.No wind46%29.56 "Hg2 mi
2:00 AM90 °FPassing clouds.No wind49%29.56 "Hg2 mi
1:00 AM90 °FPassing clouds.No wind49%29.56 "Hg2 mi
12:00 AM90 °FHaze.No wind49%29.56 "Hg2 mi
10:00 PM
Fri, May 29
97 °FHaze.No wind37%29.59 "Hg2 mi
9:00 PM97 °FHaze.No wind37%29.56 "Hg2 mi
8:30 PM99 °FHaze.No wind33%29.56 "Hg2 mi
8:00 PM100 °FHaze.2 mph35%29.53 "Hg2 mi
7:30 PM102 °FHaze.2 mph31%29.53 "Hg3 mi
7:00 PM104 °FDuststorm.2 mph28%29.53 "Hg3 mi
6:30 PM108 °FDuststorm.2 mph25%29.53 "Hg3 mi
6:00 PM111 °FDuststorm.3 mph21%29.53 "Hg3 mi
5:30 PM113 °FDuststorm.3 mph19%29.50 "Hg3 mi
5:00 PM113 °FDuststorm.3 mph17%29.50 "Hg3 mi
4:30 PM113 °FDuststorm.3 mph17%29.50 "Hg3 mi
4:00 PM115 °FDuststorm.5 mph16%29.53 "Hg3 mi
3:30 PM115 °FDuststorm.7 mph16%29.53 "Hg3 mi
3:00 PM113 °FDuststorm.9 mph17%29.53 "Hg3 mi
1:30 PM113 °FDuststorm.8 mph16%29.56 "Hg3 mi
1:00 PM111 °FDuststorm.7 mph20%29.59 "Hg2 mi
12:30 PM109 °FDuststorm.7 mph21%29.59 "Hg2 mi
12:00 PM108 °FHaze.7 mph22%29.59 "Hg2 mi
11:30 AM108 °FDuststorm.N/A18%29.62 "Hg2 mi
11:00 AM106 °FDuststorm.2 mph23%29.62 "Hg2 mi
10:30 AM106 °FDuststorm.2 mph22%29.62 "Hg2 mi
10:00 AM104 °FHaze.2 mph23%29.62 "Hg2 mi
Weather by CustomWeather, © 2015

See weather overviewHow to use our weather pages